Regional Weather Roundup
Issued by NWS

Home | Current Version | Previous Version | Graphics & Text | Print | Product List | Glossary Off
Versions: 1 2 3 4 5 6 7 8 9 10 11 12 13 14 15 16 17 18 19 20 21 22 23 24 25 26 27 28 29 30 31 32 33 34 35 36 37 38 39 40 41 42 43 44 45 46 47 48 49 50

000
ASUS43 KLSX 270810
RWRMO

WEATHER SUMMARY FOR MISSOURI
NATIONAL WEATHER SERVICE SPRINGFIELD MO
300 AM CDT THU APR 27 2017

NOTE: "FAIR" INDICATES FEW OR NO CLOUDS BELOW 12,000 FEET WITH NO
       SIGNIFICANT WEATHER AND/OR OBSTRUCTIONS TO VISIBILITY.
       CURRENT SKY AND/OR WEATHER CONDITIONS ARE NOT AVAILABLE FOR
       CHILLICOTHE AND FARMINGTON.

MOZ001>031-035>038-043-044-053-054-270900-
...NORTHERN AND WESTERN MISSOURI...

CITY           SKY/WX    TMP DP  RH WIND       PRES   REMARKS
KANSAS CTY INT CLOUDY    42  33  70 NW8       29.66S
KANSAS C DTWN  CLOUDY    44  34  67 NW9       29.67S
LEE`S SUMMIT   CLOUDY    43  36  76 NW13      29.67S
ST JOSEPH      CLOUDY    43  34  70 W8        29.66F
CHILLICOTHE      N/A     43  36  76 NW8       29.63S
KIRKSVILLE     CLOUDY    41  41 100 W9        29.58R

$$
MOZ066>068-077>081-088>096-101>105-270900-
...SOUTHWEST MISSOURI...

CITY           SKY/WX    TMP DP  RH WIND       PRES   REMARKS
SPRINGFIELD    CLOUDY    43  41  93 W8        29.67R
JOPLIN         CLEAR     41  39  93 W6        29.71F
BRANSON        MOCLDY    43  41  93 CALM      29.69S

$$
MOZ032>034-039>042-045>050-055>058-069>072-270900-
...CENTRAL MISSOURI...

CITY           SKY/WX    TMP DP  RH WIND       PRES   REMARKS
COLUMBIA       CLOUDY    44  42  93 W10       29.60F
JEFFERSON CITY CLOUDY    47  42  83 W12       29.62S
ROLLA          CLOUDY    43  43 100 W12       29.60S
SEDALIA        CLOUDY    44  42  93 W8        29.65S
WHITEMAN AFB   CLOUDY    41  41 100 W9        29.64S
OSAGE BEACH    CLOUDY    44  41  89 VRB5      29.65R

$$
MOZ051-052-059>065-270900-
...EAST CENTRAL MISSOURI...

CITY           SKY/WX    TMP DP  RH WIND       PRES   REMARKS
ST LOUIS INTL  CLOUDY    50  46  86 W14G22    29.54R
SPIRIT OF STL  CLOUDY    48  46  93 W12       29.55R
ST CHARLES     CLOUDY    49  47  93 NW16      29.52R

$$
MOZ072>076-082>087-097>100-106>115-270900-
...SOUTH CENTRAL AND SOUTHEAST MISSOURI...

CITY           SKY/WX    TMP DP  RH WIND       PRES   REMARKS
CAPE GIRARDEAU CLOUDY    51  47  86 W12       29.58R
FARMINGTON     CLOUDY    47  45  93 W10       29.56F
POPLAR BLUFF   PTCLDY    49  46  90 W8        29.61R
WEST PLAINS    LGT RAIN  46  42  86 W7G16     29.65R

$$




USA.gov is the U.S. government's official web portal to all federal, state and local government web resources and services.